Time,TemperatureF,DewpointF,PressureIn,WindDirection,WindDirectionDegrees,WindSpeedMPH,WindSpeedGustMPH,Humidity,HourlyPrecipIn,Conditions,Clouds,dailyrainin,SolarRadiationWatts/m^2,SoftwareType,DateUTC
2013-02-19 00:00:00,18.8,4.9,30.21,SE,135,1.0,4.0,54,0.00,,,-99.99,0,WeatherLink 5.7,2013-02-19 07:00:00,
2013-02-19 00:10:00,18.3,4.4,30.20,ESE,112,1.0,5.0,54,0.00,,,-99.99,0,WeatherLink 5.7,2013-02-19 07:10:00,
2013-02-19 00:15:00,18.0,4.9,30.20,ESE,112,1.0,3.0,56,0.00,,,-99.99,0,WeatherLink 5.7,2013-02-19 07:15:00,
2013-02-19 00:25:00,17.5,4.5,30.20,East,90,2.0,3.0,56,0.00,,,-99.99,0,WeatherLink 5.7,2013-02-19 07:25:00,
2013-02-19 00:30:00,17.4,4.4,30.20,East,90,1.0,2.0,56,0.00,,,-99.99,0,WeatherLink 5.7,2013-02-19 07:30:00,
2013-02-19 00:40:00,17.0,4.7,30.21,East,90,2.0,4.0,58,0.00,,,-99.99,0,WeatherLink 5.7,2013-02-19 07:40:00,
2013-02-19 00:50:00,16.6,4.7,30.22,East,90,1.0,4.0,59,0.00,,,-99.99,0,WeatherLink 5.7,2013-02-19 07:50:00,
2013-02-19 00:55:00,16.4,4.9,30.22,East,90,3.0,4.0,60,0.00,,,-99.99,0,WeatherLink 5.7,2013-02-19 07:55:00,
2013-02-19 01:00:00,16.2,4.7,30.22,East,90,1.0,3.0,60,0.00,,,-99.99,0,WeatherLink 5.7,2013-02-19 08:00:00,
2013-02-19 01:10:00,16.6,4.7,30.21,SE,135,2.0,4.0,59,0.00,,,-99.99,0,WeatherLink 5.7,2013-02-19 08:10:00,
2013-02-19 01:15:00,16.4,4.2,30.21,SE,135,2.0,4.0,58,0.00,,,-99.99,0,WeatherLink 5.7,2013-02-19 08:15:00,
2013-02-19 01:20:00,16.1,3.9,30.21,SE,135,0.0,1.0,58,0.00,,,-99.99,0,WeatherLink 5.7,2013-02-19 08:20:00,
2013-02-19 01:30:00,15.6,3.8,30.21,SE,135,1.0,3.0,59,0.00,,,-99.99,0,WeatherLink 5.7,2013-02-19 08:30:00,
2013-02-19 01:40:00,15.1,3.7,30.23,SE,135,0.0,2.0,60,0.00,,,-99.99,0,WeatherLink 5.7,2013-02-19 08:40:00,
2013-02-19 01:45:00,15.1,4.1,30.23,SE,135,0.0,2.0,61,0.00,,,-99.99,0,WeatherLink 5.7,2013-02-19 08:45:00,
2013-02-19 01:55:00,14.6,3.6,30.22,ESE,112,2.0,3.0,61,0.00,,,-99.99,0,WeatherLink 5.7,2013-02-19 08:55:00,
2013-02-19 02:00:00,14.5,3.8,30.22,ESE,112,1.0,3.0,62,0.00,,,-99.99,0,WeatherLink 5.7,2013-02-19 09:00:00,
2013-02-19 02:10:00,14.0,3.7,30.22,ESE,112,2.0,4.0,63,0.00,,,-99.99,0,WeatherLink 5.7,2013-02-19 09:10:00,
2013-02-19 02:15:00,14.0,3.7,30.22,ESE,112,2.0,5.0,63,0.00,,,-99.99,0,WeatherLink 5.7,2013-02-19 09:15:00,
2013-02-19 02:20:00,14.0,3.4,30.22,SE,135,2.0,5.0,62,0.00,,,-99.99,0,WeatherLink 5.7,2013-02-19 09:20:00,
2013-02-19 02:25:00,13.7,3.1,30.22,ESE,112,1.0,2.0,62,0.00,,,-99.99,0,WeatherLink 5.7,2013-02-19 09:25:00,
2013-02-19 02:35:00,13.5,3.6,30.22,ESE,112,2.0,4.0,64,0.00,,,-99.99,0,WeatherLink 5.7,2013-02-19 09:35:00,
2013-02-19 02:40:00,13.5,3.6,30.22,ESE,112,1.0,4.0,64,0.00,,,-99.99,0,WeatherLink 5.7,2013-02-19 09:40:00,
2013-02-19 02:50:00,13.2,2.9,30.22,SE,135,0.0,2.0,63,0.00,,,-99.99,0,WeatherLink 5.7,2013-02-19 09:50:00,
2013-02-19 02:55:00,13.0,2.8,30.22,East,90,2.0,3.0,63,0.00,,,-99.99,0,WeatherLink 5.7,2013-02-19 09:55:00,
2013-02-19 03:00:00,12.8,2.9,30.22,East,90,1.0,2.0,64,0.00,,,-99.99,0,WeatherLink 5.7,2013-02-19 10:00:00,
2013-02-19 03:10:00,12.6,3.1,30.21,ESE,112,1.0,3.0,65,0.00,,,-99.99,0,WeatherLink 5.7,2013-02-19 10:10:00,
2013-02-19 03:20:00,12.3,3.1,30.23,East,90,2.0,4.0,66,0.00,,,-99.99,0,WeatherLink 5.7,2013-02-19 10:20:00,
2013-02-19 03:26:00,12.3,3.1,30.23,ESE,112,2.0,3.0,66,0.00,,,-99.99,0,WeatherLink 5.7,2013-02-19 10:26:00,
2013-02-19 03:35:00,12.0,3.1,30.23,ESE,112,0.0,3.0,67,0.00,,,-99.99,0,WeatherLink 5.7,2013-02-19 10:35:00,
2013-02-19 03:40:00,11.8,2.9,30.23,ESE,112,0.0,2.0,67,0.00,,,-99.99,0,WeatherLink 5.7,2013-02-19 10:40:00,
2013-02-19 03:50:00,11.8,2.9,30.22,ESE,112,0.0,3.0,67,0.00,,,-99.99,0,WeatherLink 5.7,2013-02-19 10:50:00,
2013-02-19 03:55:00,11.6,2.8,30.22,ESE,112,0.0,2.0,67,0.00,,,-99.99,0,WeatherLink 5.7,2013-02-19 10:55:00,
2013-02-19 04:00:00,11.6,2.8,30.22,ESE,112,0.0,1.0,67,0.00,,,-99.99,0,WeatherLink 5.7,2013-02-19 11:00:00,
2013-02-19 04:10:00,11.4,2.9,30.24,SE,135,2.0,5.0,68,0.00,,,-99.99,0,WeatherLink 5.7,2013-02-19 11:10:00,
2013-02-19 04:15:00,11.6,2.8,30.24,SE,135,3.0,7.0,67,0.00,,,-99.99,0,WeatherLink 5.7,2013-02-19 11:15:00,
2013-02-19 04:20:00,11.8,2.9,30.25,SE,135,2.0,5.0,67,0.00,,,-99.99,0,WeatherLink 5.7,2013-02-19 11:20:00,
2013-02-19 04:25:00,11.4,2.6,30.25,East,90,2.0,4.0,67,0.00,,,-99.99,0,WeatherLink 5.7,2013-02-19 11:25:00,
2013-02-19 04:35:00,11.1,2.3,30.25,East,90,1.0,3.0,67,0.00,,,-99.99,0,WeatherLink 5.7,2013-02-19 11:35:00,
2013-02-19 04:40:00,10.9,2.4,30.25,ESE,112,0.0,1.0,68,0.00,,,-99.99,0,WeatherLink 5.7,2013-02-19 11:40:00,
2013-02-19 04:50:00,10.8,2.3,30.25,ESE,112,1.0,4.0,68,0.00,,,-99.99,0,WeatherLink 5.7,2013-02-19 11:50:00,
2013-02-19 04:55:00,10.6,1.8,30.25,ESE,112,1.0,3.0,67,0.00,,,-99.99,0,WeatherLink 5.7,2013-02-19 11:55:00,
2013-02-19 05:00:00,10.6,1.8,30.25,ESE,112,2.0,4.0,67,0.00,,,-99.99,0,WeatherLink 5.7,2013-02-19 12:00:00,
2013-02-19 05:10:00,10.6,1.8,30.25,East,90,1.0,4.0,67,0.00,,,-99.99,0,WeatherLink 5.7,2013-02-19 12:10:00,
2013-02-19 05:15:00,10.6,1.8,30.25,SE,135,1.0,3.0,67,0.00,,,-99.99,0,WeatherLink 5.7,2013-02-19 12:15:00,
2013-02-19 05:25:00,10.4,1.6,30.27,East,90,1.0,4.0,67,0.00,,,-99.99,0,WeatherLink 5.7,2013-02-19 12:25:00,
2013-02-19 05:35:00,10.2,1.7,30.27,East,90,2.0,5.0,68,0.00,,,-99.99,0,WeatherLink 5.7,2013-02-19 12:35:00,
2013-02-19 05:45:00,10.1,1.6,30.27,ESE,112,1.0,3.0,68,0.00,,,-99.99,0,WeatherLink 5.7,2013-02-19 12:45:00,
2013-02-19 05:50:00,10.1,1.6,30.27,ESE,112,1.0,3.0,68,0.00,,,-99.99,0,WeatherLink 5.7,2013-02-19 12:50:00,
2013-02-19 06:00:00,9.7,1.2,30.27,ESE,112,2.0,5.0,68,0.00,,,-99.99,0,WeatherLink 5.7,2013-02-19 13:00:00,
2013-02-19 06:10:00,9.6,1.2,30.26,ESE,112,2.0,4.0,68,0.00,,,-99.99,0,WeatherLink 5.7,2013-02-19 13:10:00,
2013-02-19 06:20:00,9.4,1.0,30.28,ESE,112,2.0,4.0,68,0.00,,,-99.99,0,WeatherLink 5.7,2013-02-19 13:20:00,
2013-02-19 06:30:00,9.2,0.8,30.28,East,90,2.0,4.0,68,0.00,,,-99.99,0,WeatherLink 5.7,2013-02-19 13:30:00,
2013-02-19 06:35:00,9.2,0.8,30.28,ESE,112,1.0,2.0,68,0.00,,,-99.99,0,WeatherLink 5.7,2013-02-19 13:35:00,
2013-02-19 06:45:00,8.9,1.1,30.28,ESE,112,1.0,3.0,70,0.00,,,-99.99,0,WeatherLink 5.7,2013-02-19 13:45:00,
2013-02-19 06:50:00,8.9,1.1,30.28,ESE,112,1.0,4.0,70,0.00,,,-99.99,0,WeatherLink 5.7,2013-02-19 13:50:00,
2013-02-19 06:55:00,8.9,1.1,30.28,ESE,112,2.0,3.0,70,0.00,,,-99.99,0,WeatherLink 5.7,2013-02-19 13:55:00,
2013-02-19 07:00:00,8.7,0.9,30.28,East,90,1.0,5.0,70,0.00,,,-99.99,3,WeatherLink 5.7,2013-02-19 14:00:00,
2013-02-19 07:10:00,8.5,0.7,30.28,East,90,0.0,2.0,70,0.00,,,-99.99,8,WeatherLink 5.7,2013-02-19 14:10:00,
2013-02-19 07:20:00,8.5,0.7,30.31,East,90,1.0,4.0,70,0.00,,,-99.99,12,WeatherLink 5.7,2013-02-19 14:20:00,
2013-02-19 07:25:00,8.3,0.5,30.31,East,90,1.0,3.0,70,0.00,,,-99.99,15,WeatherLink 5.7,2013-02-19 14:25:00,
2013-02-19 07:35:00,8.3,0.5,30.31,ESE,112,2.0,5.0,70,0.00,,,-99.99,18,WeatherLink 5.7,2013-02-19 14:35:00,
2013-02-19 07:45:00,8.3,0.5,30.31,ESE,112,2.0,4.0,70,0.00,,,-99.99,22,WeatherLink 5.7,2013-02-19 14:45:00,
2013-02-19 07:50:00,8.5,0.7,30.31,ESE,112,3.0,5.0,70,0.00,,,-99.99,26,WeatherLink 5.7,2013-02-19 14:50:00,
2013-02-19 08:00:00,9.4,1.6,30.31,ESE,112,3.0,5.0,70,0.00,,,-99.99,136,WeatherLink 5.7,2013-02-19 15:00:00,
2013-02-19 08:10:00,10.8,2.0,30.29,ESE,112,3.0,5.0,67,0.00,,,-99.99,176,WeatherLink 5.7,2013-02-19 15:10:00,
2013-02-19 08:15:00,11.1,1.9,30.29,East,90,3.0,5.0,66,0.00,,,-99.99,185,WeatherLink 5.7,2013-02-19 15:15:00,
2013-02-19 08:20:00,11.1,1.6,30.29,East,90,3.0,5.0,65,0.00,,,-99.99,171,WeatherLink 5.7,2013-02-19 15:20:00,
2013-02-19 08:30:00,12.1,2.2,30.29,East,90,3.0,7.0,64,0.00,,,-99.99,241,WeatherLink 5.7,2013-02-19 15:30:00,
2013-02-19 08:35:00,12.8,2.2,30.27,SE,135,3.0,6.0,62,0.00,,,-99.99,286,WeatherLink 5.7,2013-02-19 15:35:00,
2013-02-19 08:45:00,14.0,2.3,30.27,ESE,112,3.0,4.0,59,0.00,,,-99.99,327,WeatherLink 5.7,2013-02-19 15:45:00,
2013-02-19 08:50:00,14.6,2.5,30.26,SE,135,2.0,5.0,58,0.00,,,-99.99,344,WeatherLink 5.7,2013-02-19 15:50:00,
2013-02-19 09:00:00,14.9,1.6,30.26,ESE,112,4.0,8.0,55,0.00,,,-99.99,376,WeatherLink 5.7,2013-02-19 16:00:00,
2013-02-19 09:10:00,15.6,1.9,30.25,East,90,3.0,6.0,54,0.00,,,-99.99,408,WeatherLink 5.7,2013-02-19 16:10:00,
2013-02-19 09:15:00,16.1,2.4,30.25,ESE,112,4.0,7.0,54,0.00,,,-99.99,421,WeatherLink 5.7,2013-02-19 16:15:00,
2013-02-19 09:20:00,16.9,2.3,30.24,ESE,112,3.0,6.0,52,0.00,,,-99.99,437,WeatherLink 5.7,2013-02-19 16:20:00,
2013-02-19 09:30:00,17.4,2.3,30.24,SE,135,3.0,5.0,51,0.00,,,-99.99,468,WeatherLink 5.7,2013-02-19 16:30:00,
2013-02-19 09:35:00,17.5,1.1,30.22,East,90,3.0,5.0,48,0.00,,,-99.99,483,WeatherLink 5.7,2013-02-19 16:35:00,
2013-02-19 09:40:00,18.0,2.9,30.22,East,90,3.0,5.0,51,0.00,,,-99.99,498,WeatherLink 5.7,2013-02-19 16:40:00,
2013-02-19 09:50:00,19.6,3.1,30.20,ESE,112,1.0,5.0,48,0.00,,,-99.99,523,WeatherLink 5.7,2013-02-19 16:50:00,
2013-02-19 09:55:00,19.7,2.2,30.20,ESE,112,2.0,5.0,46,0.00,,,-99.99,537,WeatherLink 5.7,2013-02-19 16:55:00,
2013-02-19 10:00:00,20.2,2.7,30.20,ESE,112,3.0,5.0,46,0.00,,,-99.99,552,WeatherLink 5.7,2013-02-19 17:00:00,
2013-02-19 10:10:00,21.6,3.0,30.17,SE,135,2.0,5.0,44,0.00,,,-99.99,578,WeatherLink 5.7,2013-02-19 17:10:00,
2013-02-19 10:15:00,21.9,3.3,30.17,ESE,112,3.0,6.0,44,0.00,,,-99.99,590,WeatherLink 5.7,2013-02-19 17:15:00,
2013-02-19 10:25:00,22.4,2.2,30.18,ESE,112,3.0,6.0,41,0.00,,,-99.99,613,WeatherLink 5.7,2013-02-19 17:25:00,
2013-02-19 10:30:00,23.0,3.3,30.18,ESE,112,3.0,5.0,42,0.00,,,-99.99,627,WeatherLink 5.7,2013-02-19 17:30:00,
2013-02-19 10:40:00,24.2,2.2,30.15,ESE,112,1.0,4.0,38,0.00,,,-99.99,574,WeatherLink 5.7,2013-02-19 17:40:00,
2013-02-19 10:45:00,24.8,3.3,30.15,ESE,112,1.0,3.0,39,0.00,,,-99.99,581,WeatherLink 5.7,2013-02-19 17:45:00,
2013-02-19 10:55:00,25.0,3.5,30.13,ESE,112,2.0,5.0,39,0.00,,,-99.99,650,WeatherLink 5.7,2013-02-19 17:55:00,
2013-02-19 11:00:00,25.4,2.7,30.13,SSE,157,1.0,5.0,37,0.00,,,-99.99,651,WeatherLink 5.7,2013-02-19 18:00:00,
2013-02-19 11:10:00,26.6,2.0,30.12,SSE,157,1.0,4.0,34,0.00,,,-99.99,699,WeatherLink 5.7,2013-02-19 18:10:00,
2013-02-19 11:15:00,26.9,2.2,30.12,SSE,157,1.0,5.0,34,0.00,,,-99.99,706,WeatherLink 5.7,2013-02-19 18:15:00,
2013-02-19 11:20:00,27.3,3.8,30.09,ESE,112,1.0,3.0,36,0.00,,,-99.99,712,WeatherLink 5.7,2013-02-19 18:20:00,
2013-02-19 11:30:00,28.4,5.4,30.09,ESE,112,2.0,4.0,37,0.00,,,-99.99,722,WeatherLink 5.7,2013-02-19 18:30:00,
2013-02-19 11:40:00,29.1,4.2,30.06,East,90,2.0,5.0,34,0.00,,,-99.99,733,WeatherLink 5.7,2013-02-19 18:40:00,
2013-02-19 11:50:00,29.2,2.3,30.04,ESE,112,2.0,4.0,31,0.00,,,-99.99,742,WeatherLink 5.7,2013-02-19 18:50:00,
2013-02-19 11:55:00,30.1,3.1,30.04,ESE,112,1.0,4.0,31,0.00,,,-99.99,747,WeatherLink 5.7,2013-02-19 18:55:00,
2013-02-19 12:00:00,30.7,4.3,30.04,East,90,1.0,5.0,32,0.00,,,-99.99,738,WeatherLink 5.7,2013-02-19 19:00:00,
2013-02-19 12:10:00,31.6,4.4,30.02,East,90,2.0,5.0,31,0.00,,,-99.99,754,WeatherLink 5.7,2013-02-19 19:10:00,
2013-02-19 12:15:00,31.8,4.5,30.02,East,90,2.0,5.0,31,0.00,,,-99.99,756,WeatherLink 5.7,2013-02-19 19:15:00,
2013-02-19 12:20:00,32.4,3.6,30.01,ESE,112,1.0,4.0,29,0.00,,,-99.99,764,WeatherLink 5.7,2013-02-19 19:20:00,
2013-02-19 12:30:00,32.8,4.7,30.01,SSE,157,2.0,5.0,30,0.00,,,-99.99,769,WeatherLink 5.7,2013-02-19 19:30:00,
2013-02-19 12:40:00,33.5,3.0,29.97,East,90,2.0,5.0,27,0.00,,,-99.99,770,WeatherLink 5.7,2013-02-19 19:40:00,
2013-02-19 12:45:00,34.4,3.0,29.97,SE,135,1.0,5.0,26,0.00,,,-99.99,776,WeatherLink 5.7,2013-02-19 19:45:00,
2013-02-19 12:50:00,35.0,4.3,29.95,East,90,1.0,5.0,27,0.00,,,-99.99,774,WeatherLink 5.7,2013-02-19 19:50:00,
2013-02-19 13:00:00,35.5,4.8,29.95,SE,135,1.0,5.0,27,0.00,,,-99.99,789,WeatherLink 5.7,2013-02-19 20:00:00,
2013-02-19 13:10:00,36.9,6.8,29.92,SSE,157,1.0,4.0,28,0.00,,,-99.99,733,WeatherLink 5.7,2013-02-19 20:10:00,
2013-02-19 13:15:00,36.5,5.6,29.92,East,90,1.0,4.0,27,0.00,,,-99.99,594,WeatherLink 5.7,2013-02-19 20:15:00,
2013-02-19 13:20:00,36.5,4.8,29.92,East,90,1.0,3.0,26,0.00,,,-99.99,715,WeatherLink 5.7,2013-02-19 20:20:00,
2013-02-19 13:30:00,37.3,5.5,29.92,East,90,1.0,4.0,26,0.00,,,-99.99,726,WeatherLink 5.7,2013-02-19 20:30:00,
2013-02-19 13:40:00,36.9,5.1,29.89,East,90,1.0,4.0,26,0.00,,,-99.99,298,WeatherLink 5.7,2013-02-19 20:40:00,
2013-02-19 13:50:00,37.7,5.0,29.88,East,90,1.0,4.0,25,0.00,,,-99.99,663,WeatherLink 5.7,2013-02-19 20:50:00,
2013-02-19 13:55:00,38.2,7.1,29.88,East,90,1.0,3.0,27,0.00,,,-99.99,552,WeatherLink 5.7,2013-02-19 20:55:00,
2013-02-19 14:00:00,38.0,6.9,29.88,East,90,1.0,4.0,27,0.00,,,-99.99,404,WeatherLink 5.7,2013-02-19 21:00:00,
2013-02-19 14:10:00,39.3,6.3,29.87,East,90,0.0,1.0,25,0.00,,,-99.99,472,WeatherLink 5.7,2013-02-19 21:10:00,
2013-02-19 14:15:00,39.5,5.6,29.87,SE,135,1.0,3.0,24,0.00,,,-99.99,750,WeatherLink 5.7,2013-02-19 21:15:00,
2013-02-19 14:25:00,40.2,5.3,29.85,East,90,1.0,3.0,23,0.00,,,-99.99,609,WeatherLink 5.7,2013-02-19 21:25:00,
2013-02-19 14:30:00,39.8,5.9,29.85,ESE,112,1.0,3.0,24,0.00,,,-99.99,315,WeatherLink 5.7,2013-02-19 21:30:00,
2013-02-19 14:40:00,40.3,5.4,29.85,ESE,112,1.0,3.0,23,0.00,,,-99.99,520,WeatherLink 5.7,2013-02-19 21:40:00,
2013-02-19 14:50:00,40.8,6.7,29.83,ESE,112,0.0,2.0,24,0.00,,,-99.99,430,WeatherLink 5.7,2013-02-19 21:50:00,
2013-02-19 15:00:00,41.0,6.0,29.83,East,90,0.0,2.0,23,0.00,,,-99.99,457,WeatherLink 5.7,2013-02-19 22:00:00,
2013-02-19 15:10:00,41.5,6.4,29.83,East,90,1.0,3.0,23,0.00,,,-99.99,425,WeatherLink 5.7,2013-02-19 22:10:00,
2013-02-19 15:20:00,41.5,6.4,29.83,ESE,112,0.0,1.0,23,0.00,,,-99.99,359,WeatherLink 5.7,2013-02-19 22:20:00,
2013-02-19 15:30:00,41.8,7.6,29.83,ESE,112,0.0,3.0,24,0.00,,,-99.99,276,WeatherLink 5.7,2013-02-19 22:30:00,
2013-02-19 15:35:00,41.8,7.6,29.83,ESE,112,0.0,1.0,24,0.00,,,-99.99,245,WeatherLink 5.7,2013-02-19 22:35:00,
2013-02-19 15:40:00,41.9,6.7,29.83,ESE,112,0.0,2.0,23,0.00,,,-99.99,242,WeatherLink 5.7,2013-02-19 22:40:00,
2013-02-19 15:50:00,42.0,8.7,29.82,ESE,112,0.0,1.0,25,0.00,,,-99.99,157,WeatherLink 5.7,2013-02-19 22:50:00,
2013-02-19 15:55:00,42.0,7.8,29.82,ESE,112,0.0,1.0,24,0.00,,,-99.99,144,WeatherLink 5.7,2013-02-19 22:55:00,
2013-02-19 16:00:00,42.0,8.7,29.82,North,-999,0.0,0.0,25,0.00,,,-99.99,140,WeatherLink 5.7,2013-02-19 23:00:00,
2013-02-19 16:10:00,42.0,8.7,29.81,North,-999,0.0,0.0,25,0.00,,,-99.99,111,WeatherLink 5.7,2013-02-19 23:10:00,
2013-02-19 16:15:00,42.0,8.7,29.81,North,-999,0.0,0.0,25,0.00,,,-99.99,96,WeatherLink 5.7,2013-02-19 23:15:00,
2013-02-19 16:25:00,42.0,7.8,29.81,North,-999,0.0,0.0,24,0.00,,,-99.99,88,WeatherLink 5.7,2013-02-19 23:25:00,
2013-02-19 16:35:00,42.2,7.9,29.81,North,-999,0.0,0.0,24,0.00,,,-99.99,71,WeatherLink 5.7,2013-02-19 23:35:00,
2013-02-19 16:40:00,42.0,8.7,29.81,North,-999,0.0,0.0,25,0.00,,,-99.99,72,WeatherLink 5.7,2013-02-19 23:40:00,
2013-02-19 16:50:00,41.6,8.3,29.81,North,-999,0.0,0.0,25,0.00,,,-99.99,76,WeatherLink 5.7,2013-02-19 23:50:00,
2013-02-19 16:55:00,41.5,9.9,29.81,North,-999,0.0,0.0,27,0.00,,,-99.99,69,WeatherLink 5.7,2013-02-19 23:55:00,
2013-02-19 17:00:00,41.3,10.6,29.81,North,-999,0.0,0.0,28,0.00,,,-99.99,62,WeatherLink 5.7,2013-02-20 00:00:00,
2013-02-19 17:10:00,41.0,11.9,29.80,ESE,112,0.0,2.0,30,0.00,,,-99.99,54,WeatherLink 5.7,2013-02-20 00:10:00,
2013-02-19 17:20:00,40.5,11.4,29.81,ESE,112,0.0,1.0,30,0.00,,,-99.99,43,WeatherLink 5.7,2013-02-20 00:20:00,
2013-02-19 17:25:00,40.0,11.8,29.81,North,-999,0.0,0.0,31,0.00,,,-99.99,34,WeatherLink 5.7,2013-02-20 00:25:00,
2013-02-19 17:35:00,39.8,11.6,29.81,North,-999,0.0,0.0,31,0.00,,,-99.99,19,WeatherLink 5.7,2013-02-20 00:35:00,
2013-02-19 17:40:00,39.6,13.5,29.81,North,-999,0.0,0.0,34,0.00,,,-99.99,13,WeatherLink 5.7,2013-02-20 00:40:00,
2013-02-19 17:45:00,39.2,14.4,29.81,North,-999,0.0,0.0,36,0.00,,,-99.99,10,WeatherLink 5.7,2013-02-20 00:45:00,
2013-02-19 17:55:00,38.2,15.4,29.82,North,-999,0.0,0.0,39,0.00,,,-99.99,0,WeatherLink 5.7,2013-02-20 00:55:00,
2013-02-19 18:00:00,37.5,15.9,29.82,North,-999,0.0,0.0,41,0.00,,,-99.99,0,WeatherLink 5.7,2013-02-20 01:00:00,
2013-02-19 18:10:00,36.7,14.6,29.84,North,-999,0.0,0.0,40,0.00,,,-99.99,0,WeatherLink 5.7,2013-02-20 01:10:00,
2013-02-19 18:15:00,36.2,14.2,29.84,ESE,112,0.0,1.0,40,0.00,,,-99.99,0,WeatherLink 5.7,2013-02-20 01:15:00,
2013-02-19 18:25:00,35.9,14.5,29.86,North,-999,0.0,0.0,41,0.00,,,-99.99,0,WeatherLink 5.7,2013-02-20 01:25:00,
2013-02-19 18:35:00,35.5,13.5,29.85,North,-999,0.0,0.0,40,0.00,,,-99.99,0,WeatherLink 5.7,2013-02-20 01:35:00,
2013-02-19 18:45:00,34.7,15.0,29.85,North,-999,0.0,0.0,44,0.00,,,-99.99,0,WeatherLink 5.7,2013-02-20 01:45:00,
2013-02-19 18:55:00,34.3,14.1,29.86,North,-999,0.0,0.0,43,0.00,,,-99.99,0,WeatherLink 5.7,2013-02-20 01:55:00,
2013-02-19 19:00:00,34.1,14.4,29.86,North,-999,0.0,0.0,44,0.00,,,-99.99,0,WeatherLink 5.7,2013-02-20 02:00:00,
2013-02-19 19:10:00,33.5,14.9,29.88,North,-999,0.0,0.0,46,0.00,,,-99.99,0,WeatherLink 5.7,2013-02-20 02:10:00,
2013-02-19 19:15:00,33.2,14.1,29.88,ESE,112,0.0,2.0,45,0.00,,,-99.99,0,WeatherLink 5.7,2013-02-20 02:15:00,
2013-02-19 19:20:00,33.2,14.1,29.87,ESE,112,0.0,1.0,45,0.00,,,-99.99,0,WeatherLink 5.7,2013-02-20 02:20:00,
2013-02-19 19:30:00,32.6,14.1,29.87,ESE,112,1.0,3.0,46,0.00,,,-99.99,0,WeatherLink 5.7,2013-02-20 02:30:00,
2013-02-19 19:40:00,31.9,14.4,29.86,ESE,112,0.0,2.0,48,0.00,,,-99.99,0,WeatherLink 5.7,2013-02-20 02:40:00,
2013-02-19 19:45:00,31.8,14.3,29.86,ESE,112,0.0,1.0,48,0.00,,,-99.99,0,WeatherLink 5.7,2013-02-20 02:45:00,
2013-02-19 19:50:00,31.5,14.5,29.86,North,-999,0.0,0.0,49,0.00,,,-99.99,0,WeatherLink 5.7,2013-02-20 02:50:00,
2013-02-19 20:00:00,30.9,14.4,29.86,ESE,112,0.0,1.0,50,0.00,,,-99.99,0,WeatherLink 5.7,2013-02-20 03:00:00,
2013-02-19 20:10:00,30.9,14.0,29.88,ESE,112,0.0,2.0,49,0.00,,,-99.99,0,WeatherLink 5.7,2013-02-20 03:10:00,
2013-02-19 20:15:00,30.7,13.8,29.88,North,-999,0.0,0.0,49,0.00,,,-99.99,0,WeatherLink 5.7,2013-02-20 03:15:00,
2013-02-19 20:20:00,30.4,13.5,29.84,ESE,112,1.0,3.0,49,0.00,,,-99.99,0,WeatherLink 5.7,2013-02-20 03:20:00,
2013-02-19 20:30:00,29.5,13.6,29.84,ESE,112,1.0,2.0,51,0.00,,,-99.99,0,WeatherLink 5.7,2013-02-20 03:30:00,
2013-02-19 20:35:00,29.2,13.7,29.84,ESE,112,1.0,4.0,52,0.00,,,-99.99,0,WeatherLink 5.7,2013-02-20 03:35:00,
2013-02-19 20:40:00,29.1,13.2,29.84,ESE,112,1.0,3.0,51,0.00,,,-99.99,0,WeatherLink 5.7,2013-02-20 03:40:00,
2013-02-19 20:50:00,28.7,13.3,29.84,ESE,112,0.0,2.0,52,0.00,,,-99.99,0,WeatherLink 5.7,2013-02-20 03:50:00,
2013-02-19 20:55:00,28.2,13.2,29.84,ESE,112,0.0,2.0,53,0.00,,,-99.99,0,WeatherLink 5.7,2013-02-20 03:55:00,
2013-02-19 21:00:00,27.9,13.8,29.84,North,-999,0.0,0.0,55,0.00,,,-99.99,0,WeatherLink 5.7,2013-02-20 04:00:00,
2013-02-19 21:10:00,27.9,13.4,29.86,ESE,112,0.0,3.0,54,0.00,,,-99.99,0,WeatherLink 5.7,2013-02-20 04:10:00,
2013-02-19 21:15:00,27.9,12.5,29.86,ESE,112,1.0,3.0,52,0.00,,,-99.99,0,WeatherLink 5.7,2013-02-20 04:15:00,
2013-02-19 21:25:00,27.8,12.4,29.82,ESE,112,0.0,2.0,52,0.00,,,-99.99,0,WeatherLink 5.7,2013-02-20 04:25:00,
2013-02-19 21:30:00,27.2,12.7,29.82,SE,135,1.0,4.0,54,0.00,,,-99.99,0,WeatherLink 5.7,2013-02-20 04:30:00,
2013-02-19 21:40:00,26.6,12.2,29.82,East,90,1.0,3.0,54,0.00,,,-99.99,0,WeatherLink 5.7,2013-02-20 04:40:00,
2013-02-19 21:50:00,26.3,12.3,29.85,East,90,1.0,3.0,55,0.00,,,-99.99,0,WeatherLink 5.7,2013-02-20 04:50:00,
2013-02-19 21:55:00,26.0,12.4,29.85,East,90,1.0,3.0,56,0.00,,,-99.99,0,WeatherLink 5.7,2013-02-20 04:55:00,
2013-02-19 22:00:00,25.8,12.2,29.85,East,90,2.0,4.0,56,0.00,,,-99.99,0,WeatherLink 5.7,2013-02-20 05:00:00,
2013-02-19 22:05:00,25.5,12.4,29.84,East,90,1.0,3.0,57,0.00,,,-99.99,0,WeatherLink 5.7,2013-02-20 05:05:00,
2013-02-19 22:10:00,25.4,12.7,29.84,North,-999,0.0,0.0,58,0.00,,,-99.99,0,WeatherLink 5.7,2013-02-20 05:10:00,
2013-02-19 22:20:00,25.1,12.8,29.81,East,90,0.0,2.0,59,0.00,,,-99.99,0,WeatherLink 5.7,2013-02-20 05:20:00,
2013-02-19 22:25:00,25.1,12.4,29.81,ESE,112,0.0,3.0,58,0.00,,,-99.99,0,WeatherLink 5.7,2013-02-20 05:25:00,
2013-02-19 22:35:00,25.0,11.9,29.81,ESE,112,1.0,3.0,57,0.00,,,-99.99,0,WeatherLink 5.7,2013-02-20 05:35:00,
2013-02-19 22:40:00,25.0,11.9,29.81,East,90,2.0,4.0,57,0.00,,,-99.99,0,WeatherLink 5.7,2013-02-20 05:40:00,
2013-02-19 22:50:00,24.4,12.5,29.81,ESE,112,2.0,3.0,60,0.00,,,-99.99,0,WeatherLink 5.7,2013-02-20 05:50:00,
2013-02-19 22:55:00,23.9,12.0,29.81,ESE,112,1.0,3.0,60,0.00,,,-99.99,0,WeatherLink 5.7,2013-02-20 05:55:00,
2013-02-19 23:00:00,23.8,12.3,29.81,ESE,112,1.0,3.0,61,0.00,,,-99.99,0,WeatherLink 5.7,2013-02-20 06:00:00,
2013-02-19 23:10:00,23.2,12.1,29.82,ESE,112,1.0,4.0,62,0.00,,,-99.99,0,WeatherLink 5.7,2013-02-20 06:10:00,
2013-02-19 23:20:00,23.2,12.1,29.78,SE,135,1.0,3.0,62,0.00,,,-99.99,0,WeatherLink 5.7,2013-02-20 06:20:00,
2013-02-19 23:25:00,23.0,11.9,29.78,ESE,112,1.0,4.0,62,0.00,,,-99.99,0,WeatherLink 5.7,2013-02-20 06:25:00,
2013-02-19 23:30:00,22.9,11.8,29.78,ESE,112,0.0,2.0,62,0.00,,,-99.99,0,WeatherLink 5.7,2013-02-20 06:30:00,
2013-02-19 23:40:00,23.0,11.2,29.78,ESE,112,2.0,4.0,60,0.00,,,-99.99,0,WeatherLink 5.7,2013-02-20 06:40:00,
2013-02-19 23:45:00,23.0,11.2,29.78,East,90,2.0,5.0,60,0.00,,,-99.99,0,WeatherLink 5.7,2013-02-20 06:45:00,
2013-02-19 23:55:00,22.6,11.2,29.78,ESE,112,0.0,3.0,61,0.00,,,-99.99,0,WeatherLink 5.7,2013-02-20 06:55:00,